Location: Stull Observatory
(42.2506°N, 77.7903°W)
Time: 13:06:39
(UTC-05:00)

Okean O Rocket - Visible Passes

Search period start: 01 March 2017 00:00
Search period end: 11 March 2017 00:00
Orbit: 622 x 646 km, 98.1° (Epoch: 28 February)

Date Brightness Start Highest point End Pass type
(mag) Time Alt. Az. Time Alt. Az. Time Alt. Az.
01 Mar 3.9 03:47:16 10° NNE 03:48:36 19° NNE 03:48:36 19° NNE visible
01 Mar 3.7 05:25:14 10° NNW 05:26:04 12° NW 05:26:04 12° NW visible
02 Mar 3.4 04:08:55 10° N 04:10:42 24° N 04:10:42 24° N visible
03 Mar 3.1 04:30:45 10° N 04:32:49 26° NNW 04:32:49 26° NNW visible
04 Mar 4.4 03:16:25 10° NE 03:17:27 15° NE 03:17:27 15° NE visible
04 Mar 3.1 04:52:46 10° N 04:54:56 22° NW 04:54:56 22° NW visible
05 Mar 3.7 03:37:43 10° NNE 03:39:34 23° NE 03:39:34 23° NE visible
05 Mar 3.3 05:15:06 10° NNW 05:17:03 16° NW 05:17:03 16° NW visible
06 Mar 3.0 03:59:17 10° NNE 04:01:42 32° NNE 04:01:42 32° NNE visible
06 Mar 3.7 05:38:22 10° NW 05:39:10 11° WNW 05:39:10 11° WNW visible
07 Mar 2.6 04:21:02 10° N 04:23:48 36° NNW 04:23:48 36° NNW visible
08 Mar 4.3 03:07:03 10° NE 03:08:26 16° ENE 03:08:26 16° ENE visible
08 Mar 2.6 04:42:57 10° N 04:45:55 30° NW 04:45:55 30° NW visible
09 Mar 3.6 03:28:13 10° NNE 03:30:34 26° NE 03:30:34 26° NE visible
09 Mar 3.0 05:05:07 10° NNW 05:08:02 21° WNW 05:08:02 21° WNW visible
10 Mar 2.7 03:49:41 10° NNE 03:52:41 41° NE 03:52:41 41° NE visible
10 Mar 3.4 05:27:45 10° NNW 05:29:54 14° WNW 05:30:09 14° WNW visible
